Time,TemperatureF,DewpointF,PressureIn,WindDirection,WindDirectionDegrees,WindSpeedMPH,WindSpeedGustMPH,Humidity,HourlyPrecipIn,Conditions,Clouds,dailyrainin,SoftwareType,DateUTC
2013-03-04 00:00:00,25.8,12.2,29.96,SSE,163,5.8,5.8,56,0.00,SCT,,0.00,WeatherDisplay:10.37,2013-03-04 06:00:00,
2013-03-04 00:05:00,25.8,12.2,29.96,SSE,153,3.5,3.5,56,0.00,SCT,,0.00,WeatherDisplay:10.37,2013-03-04 06:05:00,
2013-03-04 00:10:00,25.8,12.2,29.96,ESE,106,3.0,3.0,56,0.00,SCT,,0.00,WeatherDisplay:10.37,2013-03-04 06:10:00,
2013-03-04 00:15:00,25.8,12.2,29.96,SE,130,3.5,3.5,56,0.00,SCT,,0.00,WeatherDisplay:10.37,2013-03-04 06:15:00,
2013-03-04 00:20:00,25.8,12.2,29.96,ESE,105,3.5,3.5,56,0.00,SCT,,0.00,WeatherDisplay:10.37,2013-03-04 06:20:00,
2013-03-04 00:25:00,25.7,12.6,29.96,ESE,119,4.0,4.0,57,0.00,SCT,,0.00,WeatherDisplay:10.37,2013-03-04 06:25:00,
2013-03-04 00:30:00,25.7,12.6,29.96,ESE,107,4.0,4.0,57,0.00,CLR,,0.00,WeatherDisplay:10.37,2013-03-04 06:30:00,
2013-03-04 00:35:00,25.7,12.6,29.96,ESE,107,3.5,3.5,57,0.00,CLR,,0.00,WeatherDisplay:10.37,2013-03-04 06:35:00,
2013-03-04 00:40:00,25.6,12.5,29.96,ESE,107,2.3,2.3,57,0.00,CLR,,0.00,WeatherDisplay:10.37,2013-03-04 06:40:00,
2013-03-04 00:45:00,25.6,12.5,29.96,ESE,107,3.5,3.5,57,0.00,SCT,,0.00,WeatherDisplay:10.37,2013-03-04 06:45:00,
2013-03-04 00:50:00,25.6,12.9,29.96,ESE,107,2.3,2.3,58,0.00,SCT,,0.00,WeatherDisplay:10.37,2013-03-04 06:50:00,
2013-03-04 00:55:00,25.6,12.9,29.96,ESE,107,2.3,2.3,58,0.00,SCT,,0.00,WeatherDisplay:10.37,2013-03-04 06:55:00,
2013-03-04 01:00:00,25.6,12.9,29.96,SE,133,3.5,3.5,58,0.00,BKN,,0.00,WeatherDisplay:10.37,2013-03-04 07:00:00,
2013-03-04 01:05:00,25.6,13.2,29.96,SE,142,3.5,3.5,59,0.00,BKN,,0.00,WeatherDisplay:10.37,2013-03-04 07:05:00,
2013-03-04 01:10:00,25.7,12.9,29.96,SSE,159,3.5,3.5,58,0.00,BKN,,0.00,WeatherDisplay:10.37,2013-03-04 07:10:00,
2013-03-04 01:15:00,25.8,13.0,29.96,SSE,159,3.5,3.5,58,0.00,BKN,,0.00,WeatherDisplay:10.37,2013-03-04 07:15:00,
2013-03-04 01:20:00,25.8,13.0,29.96,SSE,157,4.0,4.0,58,0.00,BKN,,0.00,WeatherDisplay:10.37,2013-03-04 07:20:00,
2013-03-04 01:25:00,25.8,12.6,29.96,SE,127,5.0,5.0,57,0.00,BKN,,0.00,WeatherDisplay:10.37,2013-03-04 07:25:00,
2013-03-04 01:30:00,25.8,12.6,29.96,SE,143,3.5,3.5,57,0.00,BKN,,0.00,WeatherDisplay:10.37,2013-03-04 07:30:00,
2013-03-04 01:35:00,26.0,12.8,29.96,SE,146,3.5,3.5,57,0.00,BKN,,0.00,WeatherDisplay:10.37,2013-03-04 07:35:00,
2013-03-04 01:40:00,26.0,12.8,29.96,ESE,104,3.5,3.5,57,0.00,BKN,,0.00,WeatherDisplay:10.37,2013-03-04 07:40:00,
2013-03-04 01:45:00,25.8,13.0,29.96,East,97,3.5,3.5,58,0.00,SCT,,0.00,WeatherDisplay:10.37,2013-03-04 07:45:00,
2013-03-04 01:50:00,25.7,12.9,29.96,ESE,109,3.5,3.5,58,0.00,SCT,,0.00,WeatherDisplay:10.37,2013-03-04 07:50:00,
2013-03-04 01:55:00,25.7,13.7,29.96,ESE,111,3.5,3.5,60,0.00,SCT,,0.00,WeatherDisplay:10.37,2013-03-04 07:55:00,
2013-03-04 02:00:00,25.6,13.6,29.95,ESE,123,3.5,3.5,60,0.00,BKN,,0.00,WeatherDisplay:10.37,2013-03-04 08:00:00,
2013-03-04 02:05:00,25.4,13.4,29.95,ESE,113,3.5,3.5,60,0.00,BKN,,0.00,WeatherDisplay:10.37,2013-03-04 08:05:00,
2013-03-04 02:10:00,25.3,13.3,29.95,ESE,123,5.8,5.8,60,0.00,BKN,,0.00,WeatherDisplay:10.37,2013-03-04 08:10:00,
2013-03-04 02:15:00,25.3,13.3,29.95,ESE,116,4.0,4.0,60,0.00,BKN,,0.00,WeatherDisplay:10.37,2013-03-04 08:15:00,
2013-03-04 02:20:00,25.1,13.2,29.95,East,101,5.8,5.8,60,0.00,BKN,,0.00,WeatherDisplay:10.37,2013-03-04 08:20:00,
2013-03-04 02:25:00,25.1,13.2,29.95,ESE,111,4.0,4.0,60,0.00,BKN,,0.00,WeatherDisplay:10.37,2013-03-04 08:25:00,
2013-03-04 02:30:00,25.1,13.2,29.94,ESE,102,4.6,4.6,60,0.00,OVC,,0.00,WeatherDisplay:10.37,2013-03-04 08:30:00,
2013-03-04 02:35:00,25.1,13.2,29.94,East,94,3.5,3.8,60,0.00,OVC,,0.00,WeatherDisplay:10.37,2013-03-04 08:35:00,
2013-03-04 02:40:00,25.0,13.1,29.94,ESE,108,4.6,4.6,60,0.00,OVC,,0.00,WeatherDisplay:10.37,2013-03-04 08:40:00,
2013-03-04 02:45:00,25.0,13.4,29.94,SE,138,6.9,6.9,61,0.00,OVC,,0.00,WeatherDisplay:10.37,2013-03-04 08:45:00,
2013-03-04 02:50:00,25.0,13.4,29.94,SE,128,4.6,4.6,61,0.00,OVC,,0.00,WeatherDisplay:10.37,2013-03-04 08:50:00,
2013-03-04 02:55:00,24.8,13.2,29.94,ESE,110,6.0,6.0,61,0.00,OVC,,0.00,WeatherDisplay:10.37,2013-03-04 08:55:00,
2013-03-04 03:00:00,24.8,13.2,29.93,ESE,123,5.8,5.8,61,0.00,OVC,,0.00,WeatherDisplay:10.37,2013-03-04 09:00:00,
2013-03-04 03:05:00,24.8,13.2,29.93,SE,126,6.9,6.9,61,0.00,OVC,,0.00,WeatherDisplay:10.37,2013-03-04 09:05:00,
2013-03-04 03:10:00,24.8,13.2,29.93,SE,134,6.9,6.9,61,0.00,OVC,,0.00,WeatherDisplay:10.37,2013-03-04 09:10:00,
2013-03-04 03:15:00,24.8,13.2,29.93,SE,127,5.8,5.8,61,0.00,OVC,,0.00,WeatherDisplay:10.37,2013-03-04 09:15:00,
2013-03-04 03:20:00,24.8,13.2,29.93,SE,124,11.5,11.5,61,0.00,OVC,,0.00,WeatherDisplay:10.37,2013-03-04 09:20:00,
2013-03-04 03:25:00,24.8,13.2,29.93,ESE,119,6.0,6.0,61,0.00,OVC,,0.00,WeatherDisplay:10.37,2013-03-04 09:25:00,
2013-03-04 03:30:00,24.8,13.6,29.93,ESE,109,9.0,9.0,62,0.00,OVC,,0.00,WeatherDisplay:10.37,2013-03-04 09:30:00,
2013-03-04 03:35:00,24.8,13.6,29.92,ESE,121,5.0,5.0,62,0.00,OVC,,0.00,WeatherDisplay:10.37,2013-03-04 09:35:00,
2013-03-04 03:40:00,24.8,13.6,29.92,SE,125,6.9,6.9,62,0.00,OVC,,0.00,WeatherDisplay:10.37,2013-03-04 09:40:00,
2013-03-04 03:45:00,24.8,13.6,29.92,ESE,119,9.2,9.2,62,0.00,BKN,,0.00,WeatherDisplay:10.37,2013-03-04 09:45:00,
2013-03-04 03:50:00,24.8,13.6,29.92,SE,143,6.9,6.9,62,0.00,BKN,,0.00,WeatherDisplay:10.37,2013-03-04 09:50:00,
2013-03-04 03:55:00,24.8,13.6,29.92,ESE,118,9.2,9.2,62,0.00,BKN,,0.00,WeatherDisplay:10.37,2013-03-04 09:55:00,
2013-03-04 04:00:00,24.8,13.6,29.91,ESE,117,6.9,6.9,62,0.00,BKN,,0.00,WeatherDisplay:10.37,2013-03-04 10:00:00,
2013-03-04 04:05:00,24.8,13.6,29.91,SE,146,10.4,10.4,62,0.00,BKN,,0.00,WeatherDisplay:10.37,2013-03-04 10:05:00,
2013-03-04 04:10:00,24.8,13.6,29.91,ESE,118,6.9,6.9,62,0.00,BKN,,0.00,WeatherDisplay:10.37,2013-03-04 10:10:00,
2013-03-04 04:15:00,24.8,13.2,29.92,SE,128,4.6,4.6,61,0.00,BKN,,0.00,WeatherDisplay:10.37,2013-03-04 10:15:00,
2013-03-04 04:20:00,24.8,13.2,29.92,ESE,108,7.0,7.0,61,0.00,BKN,,0.00,WeatherDisplay:10.37,2013-03-04 10:20:00,
2013-03-04 04:25:00,25.0,13.1,29.92,ESE,114,9.2,9.2,60,0.00,BKN,,0.00,WeatherDisplay:10.37,2013-03-04 10:25:00,
2013-03-04 04:30:00,25.0,13.1,29.92,ESE,105,6.9,6.9,60,0.00,OVC,,0.00,WeatherDisplay:10.37,2013-03-04 10:30:00,
2013-03-04 04:35:00,25.0,13.1,29.92,East,100,9.2,9.2,60,0.00,OVC,,0.00,WeatherDisplay:10.37,2013-03-04 10:35:00,
2013-03-04 04:40:00,25.0,13.1,29.92,ESE,109,7.0,7.0,60,0.00,OVC,,0.00,WeatherDisplay:10.37,2013-03-04 10:40:00,
2013-03-04 04:45:00,25.0,13.1,29.92,ESE,121,6.9,6.9,60,0.00,OVC,,0.00,WeatherDisplay:10.37,2013-03-04 10:45:00,
2013-03-04 04:50:00,25.0,13.1,29.92,SE,126,3.5,3.5,60,0.00,OVC,,0.00,WeatherDisplay:10.37,2013-03-04 10:50:00,
2013-03-04 04:55:00,25.0,12.7,29.92,SSE,149,10.4,10.4,59,0.00,OVC,,0.00,WeatherDisplay:10.37,2013-03-04 10:55:00,
2013-03-04 05:00:00,25.0,12.7,29.92,SE,146,11.5,11.5,59,0.00,-SN,,0.00,WeatherDisplay:10.37,2013-03-04 11:00:00,
2013-03-04 05:05:00,24.8,13.2,29.92,ESE,117,11.5,11.5,61,0.00,-SN,,0.00,WeatherDisplay:10.37,2013-03-04 11:05:00,
2013-03-04 05:10:00,24.4,14.0,29.92,SE,139,11.5,11.5,64,0.00,-SN,,0.00,WeatherDisplay:10.37,2013-03-04 11:10:00,
2013-03-04 05:15:00,24.1,14.7,29.92,SE,136,15.0,15.0,67,0.00,-SN,,0.00,WeatherDisplay:10.37,2013-03-04 11:15:00,
2013-03-04 05:20:00,23.6,15.2,29.92,SSE,147,15.0,15.0,70,0.00,-SN,,0.00,WeatherDisplay:10.37,2013-03-04 11:20:00,
2013-03-04 05:25:00,23.3,15.9,29.92,SE,125,16.1,16.1,73,0.00,-SN,,0.00,WeatherDisplay:10.37,2013-03-04 11:25:00,
2013-03-04 05:30:00,23.0,16.3,29.92,SE,135,6.9,6.9,75,0.00,-SN,,0.00,WeatherDisplay:10.37,2013-03-04 11:30:00,
2013-03-04 05:35:00,22.7,16.6,29.92,ESE,120,13.8,13.8,77,0.00,-SN,,0.00,WeatherDisplay:10.37,2013-03-04 11:35:00,
2013-03-04 05:40:00,22.5,17.0,29.92,ESE,108,9.2,9.2,79,0.00,-SN,,0.00,WeatherDisplay:10.37,2013-03-04 11:40:00,
2013-03-04 05:45:00,22.4,17.2,29.92,ESE,105,4.0,4.4,80,0.00,OVC,,0.00,WeatherDisplay:10.37,2013-03-04 11:45:00,
2013-03-04 05:50:00,22.2,17.3,29.92,ESE,110,3.5,3.5,81,0.00,OVC,,0.00,WeatherDisplay:10.37,2013-03-04 11:50:00,
2013-03-04 05:55:00,22.1,17.4,29.92,SSE,155,11.5,11.5,82,0.00,OVC,,0.00,WeatherDisplay:10.37,2013-03-04 11:55:00,
2013-03-04 06:00:00,21.9,17.5,29.93,SSE,153,7.0,7.0,83,0.00,OVC,,0.00,WeatherDisplay:10.37,2013-03-04 12:00:00,
2013-03-04 06:05:00,21.9,17.8,29.93,SE,140,9.2,9.2,84,0.00,OVC,,0.00,WeatherDisplay:10.37,2013-03-04 12:05:00,
2013-03-04 06:10:00,21.8,17.7,29.93,ESE,120,6.9,6.9,84,0.00,OVC,,0.00,WeatherDisplay:10.37,2013-03-04 12:10:00,
2013-03-04 06:15:00,21.8,18.0,29.93,ESE,105,4.6,4.6,85,0.00,OVC,,0.00,WeatherDisplay:10.37,2013-03-04 12:15:00,
2013-03-04 06:20:00,21.8,18.0,29.93,SSE,147,5.8,5.8,85,0.00,OVC,,0.00,WeatherDisplay:10.37,2013-03-04 12:20:00,
2013-03-04 06:25:00,21.6,18.1,29.93,SE,134,6.0,6.0,86,0.00,OVC,,0.00,WeatherDisplay:10.37,2013-03-04 12:25:00,
2013-03-04 06:30:00,21.6,18.1,29.93,ESE,106,5.8,5.8,86,0.00,OVC,,0.00,WeatherDisplay:10.37,2013-03-04 12:30:00,
2013-03-04 06:35:00,21.6,18.1,29.93,ESE,117,4.6,4.6,86,0.00,OVC,,0.00,WeatherDisplay:10.37,2013-03-04 12:35:00,
2013-03-04 06:40:00,21.6,18.1,29.93,ESE,119,5.0,5.0,86,0.00,OVC,,0.00,WeatherDisplay:10.37,2013-03-04 12:40:00,
2013-03-04 06:45:00,21.4,18.1,29.93,ESE,104,6.9,6.9,87,0.00,OVC,,0.00,WeatherDisplay:10.37,2013-03-04 12:45:00,
2013-03-04 06:50:00,21.4,18.1,29.93,East,96,6.9,6.9,87,0.00,OVC,,0.00,WeatherDisplay:10.37,2013-03-04 12:50:00,
2013-03-04 06:55:00,21.4,18.1,29.93,East,101,10.4,10.4,87,0.00,OVC,,0.00,WeatherDisplay:10.37,2013-03-04 12:55:00,
2013-03-04 07:00:00,21.3,18.0,29.93,ESE,119,5.0,5.0,87,0.00,OVC,,0.00,WeatherDisplay:10.37,2013-03-04 13:00:00,
2013-03-04 07:05:00,21.3,18.0,29.93,East,97,9.2,9.2,87,0.00,OVC,,0.00,WeatherDisplay:10.37,2013-03-04 13:05:00,
2013-03-04 07:10:00,21.3,18.3,29.93,ESE,115,9.2,9.2,88,0.00,OVC,,0.00,WeatherDisplay:10.37,2013-03-04 13:10:00,
2013-03-04 07:15:00,21.3,18.3,29.92,SE,124,6.9,6.9,88,0.00,OVC,,0.00,WeatherDisplay:10.37,2013-03-04 13:15:00,
2013-03-04 07:20:00,21.3,18.3,29.92,ESE,113,10.4,10.4,88,0.00,OVC,,0.00,WeatherDisplay:10.37,2013-03-04 13:20:00,
2013-03-04 07:25:00,21.3,18.3,29.92,ESE,108,11.5,11.5,88,0.00,OVC,,0.00,WeatherDisplay:10.37,2013-03-04 13:25:00,
2013-03-04 07:30:00,21.4,18.4,29.92,East,98,6.9,6.9,88,0.00,-SN,,0.00,WeatherDisplay:10.37,2013-03-04 13:30:00,
2013-03-04 07:35:00,21.4,18.4,29.92,East,96,8.1,8.1,88,0.00,-SN,,0.00,WeatherDisplay:10.37,2013-03-04 13:35:00,
2013-03-04 07:40:00,21.4,18.4,29.92,South,180,5.8,5.8,88,0.00,-SN,,0.00,WeatherDisplay:10.37,2013-03-04 13:40:00,
2013-03-04 07:45:00,21.4,18.4,29.93,ESE,105,11.5,11.5,88,0.00,OVC,,0.00,WeatherDisplay:10.37,2013-03-04 13:45:00,
2013-03-04 07:50:00,21.4,18.4,29.93,SSE,165,7.0,7.0,88,0.00,OVC,,0.00,WeatherDisplay:10.37,2013-03-04 13:50:00,
2013-03-04 07:55:00,21.6,18.6,29.93,ESE,108,4.6,4.7,88,0.00,OVC,,0.00,WeatherDisplay:10.37,2013-03-04 13:55:00,
2013-03-04 08:00:00,21.6,18.6,29.93,ESE,109,9.2,9.2,88,0.00,-SN,,0.00,WeatherDisplay:10.37,2013-03-04 14:00:00,
2013-03-04 08:05:00,21.6,18.6,29.93,ESE,118,6.9,6.9,88,0.00,-SN,,0.00,WeatherDisplay:10.37,2013-03-04 14:05:00,
2013-03-04 08:10:00,21.8,18.8,29.93,SE,142,11.5,11.5,88,0.00,-SN,,0.00,WeatherDisplay:10.37,2013-03-04 14:10:00,
2013-03-04 08:15:00,21.8,18.8,29.93,ESE,110,10.4,10.4,88,0.00,-SN,,0.00,WeatherDisplay:10.37,2013-03-04 14:15:00,
2013-03-04 08:20:00,21.9,18.9,29.93,SSE,163,11.5,11.5,88,0.00,-SN,,0.00,WeatherDisplay:10.37,2013-03-04 14:20:00,
2013-03-04 08:25:00,21.9,18.9,29.93,SE,139,11.5,11.5,88,0.00,-SN,,0.00,WeatherDisplay:10.37,2013-03-04 14:25:00,
2013-03-04 08:30:00,21.9,18.9,29.94,ENE,76,10.4,10.4,88,0.00,-SN,,0.00,WeatherDisplay:10.37,2013-03-04 14:30:00,
2013-03-04 08:35:00,22.1,19.1,29.94,ESE,105,3.5,3.5,88,0.00,-SN,,0.00,WeatherDisplay:10.37,2013-03-04 14:35:00,
2013-03-04 08:40:00,22.1,19.1,29.94,ESE,115,5.8,5.8,88,0.00,-SN,,0.00,WeatherDisplay:10.37,2013-03-04 14:40:00,
2013-03-04 08:45:00,22.1,19.1,29.93,South,178,8.1,8.1,88,0.00,-SN,,0.00,WeatherDisplay:10.37,2013-03-04 14:45:00,
2013-03-04 08:50:00,22.1,19.1,29.93,East,101,12.7,12.7,88,0.00,-SN,,0.00,WeatherDisplay:10.37,2013-03-04 14:50:00,
2013-03-04 08:55:00,22.1,19.1,29.93,SSE,148,10.4,10.4,88,0.00,-SN,,0.00,WeatherDisplay:10.37,2013-03-04 14:55:00,
2013-03-04 09:00:00,22.2,19.2,29.94,ESE,121,6.9,6.9,88,0.00,-SN,,0.00,WeatherDisplay:10.37,2013-03-04 15:00:00,
2013-03-04 09:05:00,22.2,19.2,29.94,SSE,155,11.5,11.5,88,0.00,-SN,,0.00,WeatherDisplay:10.37,2013-03-04 15:05:00,
2013-03-04 09:10:00,22.2,19.2,29.94,SE,133,10.4,10.4,88,0.00,-SN,,0.00,WeatherDisplay:10.37,2013-03-04 15:10:00,
2013-03-04 09:15:00,22.2,19.2,29.94,South,181,10.4,10.4,88,0.00,-SN,,0.00,WeatherDisplay:10.37,2013-03-04 15:15:00,
2013-03-04 09:20:00,22.2,19.2,29.94,South,169,12.7,12.7,88,0.00,-SN,,0.00,WeatherDisplay:10.37,2013-03-04 15:20:00,
2013-03-04 09:25:00,22.1,19.1,29.94,ESE,121,13.0,13.0,88,0.00,-SN,,0.00,WeatherDisplay:10.37,2013-03-04 15:25:00,
2013-03-04 09:30:00,22.1,19.1,29.93,ESE,111,13.0,13.0,88,0.00,-SN,,0.00,WeatherDisplay:10.37,2013-03-04 15:30:00,
2013-03-04 09:35:00,22.1,19.1,29.93,SE,144,9.2,9.2,88,0.00,-SN,,0.00,WeatherDisplay:10.37,2013-03-04 15:35:00,
2013-03-04 09:40:00,22.2,19.2,29.93,East,97,11.5,11.5,88,0.00,-SN,,0.00,WeatherDisplay:10.37,2013-03-04 15:40:00,
2013-03-04 09:45:00,22.4,19.4,29.93,ESE,107,10.4,10.4,88,0.00,-SN,,0.00,WeatherDisplay:10.37,2013-03-04 15:45:00,
2013-03-04 09:50:00,22.4,19.4,29.93,ESE,112,6.9,6.9,88,0.00,-SN,,0.00,WeatherDisplay:10.37,2013-03-04 15:50:00,
2013-03-04 09:55:00,22.5,19.5,29.93,ESE,104,6.9,6.9,88,0.00,-SN,,0.00,WeatherDisplay:10.37,2013-03-04 15:55:00,
2013-03-04 10:00:00,22.5,19.5,29.93,ESE,105,11.5,11.5,88,0.00,OVC,,0.00,WeatherDisplay:10.37,2013-03-04 16:00:00,
2013-03-04 10:05:00,22.4,19.4,29.93,ESE,121,11.0,11.0,88,0.00,OVC,,0.00,WeatherDisplay:10.37,2013-03-04 16:05:00,
2013-03-04 10:10:00,22.4,19.1,29.93,East,95,12.7,12.7,87,0.00,OVC,,0.00,WeatherDisplay:10.37,2013-03-04 16:10:00,
2013-03-04 10:15:00,22.4,19.1,29.93,SE,140,9.2,9.2,87,0.00,OVC,,0.00,WeatherDisplay:10.37,2013-03-04 16:15:00,
2013-03-04 10:20:00,22.4,19.1,29.93,SSE,161,11.5,11.5,87,0.00,OVC,,0.00,WeatherDisplay:10.37,2013-03-04 16:20:00,
2013-03-04 10:25:00,22.2,18.9,29.93,ESE,113,10.4,10.4,87,0.00,OVC,,0.00,WeatherDisplay:10.37,2013-03-04 16:25:00,
2013-03-04 10:30:00,22.4,19.1,29.93,SE,140,9.2,9.2,87,0.00,OVC,,0.00,WeatherDisplay:10.37,2013-03-04 16:30:00,
2013-03-04 10:35:00,22.4,18.8,29.93,ESE,111,11.5,11.5,86,0.00,OVC,,0.00,WeatherDisplay:10.37,2013-03-04 16:35:00,
2013-03-04 10:40:00,22.4,18.8,29.93,SE,136,6.9,6.9,86,0.00,OVC,,0.00,WeatherDisplay:10.37,2013-03-04 16:40:00,
2013-03-04 10:45:00,22.5,18.9,29.93,SE,134,15.0,15.0,86,0.00,OVC,,0.00,WeatherDisplay:10.37,2013-03-04 16:45:00,
2013-03-04 10:50:00,22.5,18.7,29.93,SE,142,9.2,9.2,85,0.00,OVC,,0.00,WeatherDisplay:10.37,2013-03-04 16:50:00,
2013-03-04 10:55:00,22.5,18.7,29.93,SE,126,9.0,9.0,85,0.00,OVC,,0.00,WeatherDisplay:10.37,2013-03-04 16:55:00,
2013-03-04 11:00:00,22.7,18.9,29.93,SE,124,10.4,10.4,85,0.00,-SN,,0.00,WeatherDisplay:10.37,2013-03-04 17:00:00,
2013-03-04 11:05:00,23.0,18.9,29.93,South,174,11.5,11.5,84,0.00,-SN,,0.00,WeatherDisplay:10.37,2013-03-04 17:05:00,
2013-03-04 11:10:00,23.0,18.9,29.93,SE,128,9.2,9.2,84,0.00,-SN,,0.00,WeatherDisplay:10.37,2013-03-04 17:10:00,
2013-03-04 11:15:00,23.0,18.6,29.93,SE,138,12.7,12.7,83,0.00,-SN,,0.00,WeatherDisplay:10.37,2013-03-04 17:15:00,
2013-03-04 11:20:00,23.2,18.8,29.93,ESE,108,8.1,8.1,83,0.00,-SN,,0.00,WeatherDisplay:10.37,2013-03-04 17:20:00,
2013-03-04 11:25:00,23.2,18.5,29.93,SE,130,11.5,11.5,82,0.00,-SN,,0.00,WeatherDisplay:10.37,2013-03-04 17:25:00,
2013-03-04 11:30:00,23.2,18.5,29.93,SE,142,10.4,10.4,82,0.00,-SN,,0.00,WeatherDisplay:10.37,2013-03-04 17:30:00,
2013-03-04 11:35:00,23.3,18.6,29.93,SE,139,11.5,11.5,82,0.00,-SN,,0.00,WeatherDisplay:10.37,2013-03-04 17:35:00,
2013-03-04 11:40:00,23.5,18.8,29.93,ESE,118,6.9,6.9,82,0.00,-SN,,0.00,WeatherDisplay:10.37,2013-03-04 17:40:00,
2013-03-04 11:45:00,23.6,18.9,29.93,ESE,121,10.4,10.4,82,0.00,-SN,,0.00,WeatherDisplay:10.37,2013-03-04 17:45:00,
2013-03-04 11:50:00,23.5,18.8,29.93,SE,130,9.2,9.2,82,0.00,-SN,,0.00,WeatherDisplay:10.37,2013-03-04 17:50:00,
2013-03-04 11:55:00,23.5,18.8,29.93,SE,126,6.0,6.0,82,0.00,-SN,,0.00,WeatherDisplay:10.37,2013-03-04 17:55:00,
2013-03-04 12:00:00,23.6,18.9,29.92,East,96,8.1,8.1,82,0.00,-SN,,0.00,WeatherDisplay:10.37,2013-03-04 18:00:00,
2013-03-04 12:05:00,23.6,18.6,29.92,ESE,105,11.5,11.5,81,0.00,-SN,,0.00,WeatherDisplay:10.37,2013-03-04 18:05:00,
2013-03-04 12:10:00,23.8,18.8,29.92,ESE,115,10.4,10.4,81,0.00,-SN,,0.00,WeatherDisplay:10.37,2013-03-04 18:10:00,
2013-03-04 12:15:00,23.9,18.6,29.92,SSE,153,9.2,9.2,80,0.00,-SN,,0.00,WeatherDisplay:10.37,2013-03-04 18:15:00,
2013-03-04 12:20:00,24.1,18.8,29.92,East,92,10.4,10.4,80,0.00,-SN,,0.00,WeatherDisplay:10.37,2013-03-04 18:20:00,
2013-03-04 12:25:00,24.1,18.5,29.92,SE,132,7.0,7.0,79,0.00,-SN,,0.00,WeatherDisplay:10.37,2013-03-04 18:25:00,
2013-03-04 12:30:00,24.1,18.5,29.91,ESE,103,9.2,9.2,79,0.00,-SN,,0.00,WeatherDisplay:10.37,2013-03-04 18:30:00,
2013-03-04 12:35:00,24.1,18.2,29.91,SSE,157,10.0,10.0,78,0.00,-SN,,0.00,WeatherDisplay:10.37,2013-03-04 18:35:00,
2013-03-04 12:40:00,24.1,17.9,29.91,East,98,10.4,10.4,77,0.00,-SN,,0.00,WeatherDisplay:10.37,2013-03-04 18:40:00,
2013-03-04 12:45:00,24.1,17.9,29.91,ESE,121,4.6,4.6,77,0.00,OVC,,0.00,WeatherDisplay:10.37,2013-03-04 18:45:00,
2013-03-04 12:50:00,24.2,17.7,29.91,ESE,108,9.2,9.2,76,0.00,OVC,,0.00,WeatherDisplay:10.37,2013-03-04 18:50:00,
2013-03-04 12:55:00,24.2,17.4,29.91,ESE,121,6.9,6.9,75,0.00,OVC,,0.00,WeatherDisplay:10.37,2013-03-04 18:55:00,
2013-03-04 13:00:00,24.4,17.6,29.92,SSE,165,6.9,6.9,75,0.00,OVC,,0.00,WeatherDisplay:10.37,2013-03-04 19:00:00,
2013-03-04 13:05:00,24.7,17.3,29.92,SSE,148,11.0,11.0,73,0.00,OVC,,0.00,WeatherDisplay:10.37,2013-03-04 19:05:00,
2013-03-04 13:10:00,24.7,16.6,29.92,East,96,5.8,5.8,71,0.00,OVC,,0.00,WeatherDisplay:10.37,2013-03-04 19:10:00,
2013-03-04 13:15:00,24.7,15.6,29.92,SSE,151,15.0,15.0,68,0.00,OVC,,0.00,WeatherDisplay:10.37,2013-03-04 19:15:00,
2013-03-04 13:20:00,24.5,15.4,29.92,ESE,108,11.0,11.0,68,0.00,OVC,,0.00,WeatherDisplay:10.37,2013-03-04 19:20:00,
2013-03-04 13:25:00,24.5,15.4,29.92,SE,138,5.0,5.0,68,0.00,OVC,,0.00,WeatherDisplay:10.37,2013-03-04 19:25:00,
2013-03-04 13:30:00,24.8,16.1,29.91,South,184,4.6,4.6,69,0.00,OVC,,0.00,WeatherDisplay:10.37,2013-03-04 19:30:00,
2013-03-04 13:35:00,24.8,15.4,29.91,SE,139,10.4,10.4,67,0.00,-SN,,0.00,WeatherDisplay:10.37,2013-03-04 19:35:00,
2013-03-04 13:40:00,24.7,14.6,29.91,SE,128,10.4,10.4,65,0.00,OVC,,0.00,WeatherDisplay:10.37,2013-03-04 19:40:00,
2013-03-04 13:45:00,24.8,14.7,29.91,SE,132,9.2,9.2,65,0.00,OVC,,0.00,WeatherDisplay:10.37,2013-03-04 19:45:00,
2013-03-04 13:50:00,24.8,14.3,29.91,SSE,149,10.4,10.4,64,0.00,OVC,,0.00,WeatherDisplay:10.37,2013-03-04 19:50:00,
2013-03-04 13:55:00,24.7,13.9,29.91,ESE,111,11.5,11.5,63,0.00,OVC,,0.00,WeatherDisplay:10.37,2013-03-04 19:55:00,
2013-03-04 14:00:00,24.4,13.6,29.91,SE,142,11.5,11.5,63,0.00,OVC,,0.00,WeatherDisplay:10.37,2013-03-04 20:00:00,
2013-03-04 14:05:00,24.4,13.2,29.91,SSE,167,10.4,10.4,62,0.00,OVC,,0.00,WeatherDisplay:10.37,2013-03-04 20:05:00,
2013-03-04 14:10:00,24.5,13.7,29.91,SE,128,9.0,9.0,63,0.00,OVC,,0.00,WeatherDisplay:10.37,2013-03-04 20:10:00,
2013-03-04 14:15:00,24.7,13.9,29.91,ESE,115,11.5,11.5,63,0.00,OVC,,0.00,WeatherDisplay:10.37,2013-03-04 20:15:00,
2013-03-04 14:20:00,24.5,13.3,29.91,SE,140,11.5,11.5,62,0.00,OVC,,0.00,WeatherDisplay:10.37,2013-03-04 20:20:00,
2013-03-04 14:25:00,24.5,13.7,29.91,East,98,8.1,8.1,63,0.00,OVC,,0.00,WeatherDisplay:10.37,2013-03-04 20:25:00,
2013-03-04 14:30:00,24.5,13.7,29.92,SE,130,8.1,8.1,63,0.00,OVC,,0.00,WeatherDisplay:10.37,2013-03-04 20:30:00,
2013-03-04 14:35:00,24.4,13.6,29.92,East,89,9.2,9.2,63,0.00,OVC,,0.00,WeatherDisplay:10.37,2013-03-04 20:35:00,
2013-03-04 14:40:00,24.5,14.1,29.92,ESE,122,6.0,6.0,64,0.00,OVC,,0.00,WeatherDisplay:10.37,2013-03-04 20:40:00,
2013-03-04 14:45:00,24.5,14.1,29.92,ESE,107,9.2,9.2,64,0.00,OVC,,0.00,WeatherDisplay:10.37,2013-03-04 20:45:00,
2013-03-04 14:50:00,24.5,14.4,29.92,SE,142,11.5,11.5,65,0.00,OVC,,0.00,WeatherDisplay:10.37,2013-03-04 20:50:00,
2013-03-04 14:55:00,24.4,14.3,29.92,East,93,10.4,10.4,65,0.00,OVC,,0.00,WeatherDisplay:10.37,2013-03-04 20:55:00,
2013-03-04 15:00:00,24.4,14.7,29.92,ESE,120,10.4,10.4,66,0.00,OVC,,0.00,WeatherDisplay:10.37,2013-03-04 21:00:00,
2013-03-04 15:05:00,24.2,14.8,29.92,SE,127,10.4,10.4,67,0.00,OVC,,0.00,WeatherDisplay:10.37,2013-03-04 21:05:00,
2013-03-04 15:10:00,24.4,15.0,29.92,ESE,120,5.8,5.8,67,0.00,OVC,,0.00,WeatherDisplay:10.37,2013-03-04 21:10:00,
2013-03-04 15:15:00,24.4,15.3,29.92,ESE,123,10.4,10.4,68,0.00,OVC,,0.00,WeatherDisplay:10.37,2013-03-04 21:15:00,
2013-03-04 15:20:00,24.4,15.3,29.92,East,98,6.9,6.9,68,0.00,OVC,,0.00,WeatherDisplay:10.37,2013-03-04 21:20:00,
2013-03-04 15:25:00,24.5,16.1,29.92,East,85,4.6,4.6,70,0.00,OVC,,0.00,WeatherDisplay:10.37,2013-03-04 21:25:00,
2013-03-04 15:30:00,24.5,15.8,29.92,ESE,102,9.2,9.2,69,0.00,OVC,,0.00,WeatherDisplay:10.37,2013-03-04 21:30:00,
2013-03-04 15:35:00,24.4,16.0,29.92,SE,126,4.6,4.6,70,0.00,OVC,,0.00,WeatherDisplay:10.37,2013-03-04 21:35:00,
2013-03-04 15:40:00,24.4,16.0,29.92,ESE,115,5.8,5.8,70,0.00,OVC,,0.00,WeatherDisplay:10.37,2013-03-04 21:40:00,
2013-03-04 15:45:00,24.4,16.3,29.93,East,90,6.9,6.9,71,0.00,OVC,,0.00,WeatherDisplay:10.37,2013-03-04 21:45:00,
2013-03-04 15:50:00,24.4,16.7,29.93,ESE,118,4.6,4.6,72,0.00,OVC,,0.00,WeatherDisplay:10.37,2013-03-04 21:50:00,
2013-03-04 15:55:00,24.4,16.7,29.93,East,98,7.0,7.0,72,0.00,OVC,,0.00,WeatherDisplay:10.37,2013-03-04 21:55:00,
2013-03-04 16:00:00,24.4,17.0,29.94,East,99,5.8,5.8,73,0.00,OVC,,0.00,WeatherDisplay:10.37,2013-03-04 22:00:00,
2013-03-04 16:05:00,24.4,17.0,29.94,East,87,5.8,5.8,73,0.00,OVC,,0.00,WeatherDisplay:10.37,2013-03-04 22:05:00,
2013-03-04 16:10:00,24.4,17.3,29.94,East,99,3.5,3.5,74,0.00,OVC,,0.00,WeatherDisplay:10.37,2013-03-04 22:10:00,
2013-03-04 16:15:00,24.4,17.6,29.94,ENE,78,6.9,6.9,75,0.00,OVC,,0.00,WeatherDisplay:10.37,2013-03-04 22:15:00,
2013-03-04 16:20:00,24.4,17.6,29.94,ESE,105,10.0,10.0,75,0.00,OVC,,0.00,WeatherDisplay:10.37,2013-03-04 22:20:00,
2013-03-04 16:25:00,24.2,17.7,29.94,ENE,71,4.6,4.6,76,0.00,OVC,,0.00,WeatherDisplay:10.37,2013-03-04 22:25:00,
2013-03-04 16:30:00,24.2,17.7,29.94,ESE,102,6.9,6.9,76,0.00,OVC,,0.00,WeatherDisplay:10.37,2013-03-04 22:30:00,
2013-03-04 16:35:00,24.2,17.7,29.94,SE,143,5.8,5.8,76,0.00,OVC,,0.00,WeatherDisplay:10.37,2013-03-04 22:35:00,
2013-03-04 16:40:00,24.2,17.7,29.94,ENE,76,9.2,9.2,76,0.00,OVC,,0.00,WeatherDisplay:10.37,2013-03-04 22:40:00,
2013-03-04 16:45:00,24.4,18.2,29.94,ESE,117,4.0,4.0,77,0.00,OVC,,0.00,WeatherDisplay:10.37,2013-03-04 22:45:00,
2013-03-04 16:50:00,24.1,17.9,29.94,East,86,10.4,10.4,77,0.00,OVC,,0.00,WeatherDisplay:10.37,2013-03-04 22:50:00,
2013-03-04 16:55:00,23.8,17.9,29.94,ENE,60,6.9,6.9,78,0.00,OVC,,0.00,WeatherDisplay:10.37,2013-03-04 22:55:00,
2013-03-04 17:00:00,23.8,18.2,29.94,East,97,8.1,8.1,79,0.00,OVC,,0.00,WeatherDisplay:10.37,2013-03-04 23:00:00,
2013-03-04 17:05:00,23.6,18.3,29.94,ESE,118,9.2,9.2,80,0.00,OVC,,0.00,WeatherDisplay:10.37,2013-03-04 23:05:00,
2013-03-04 17:10:00,23.5,18.2,29.94,East,90,8.1,8.1,80,0.00,OVC,,0.00,WeatherDisplay:10.37,2013-03-04 23:10:00,
2013-03-04 17:15:00,23.5,18.2,29.94,East,100,5.8,5.8,80,0.00,OVC,,0.00,WeatherDisplay:10.37,2013-03-04 23:15:00,
2013-03-04 17:20:00,23.5,18.2,29.94,East,94,9.2,9.2,80,0.00,OVC,,0.00,WeatherDisplay:10.37,2013-03-04 23:20:00,
2013-03-04 17:25:00,23.3,18.0,29.94,ENE,70,8.1,8.1,80,0.00,OVC,,0.00,WeatherDisplay:10.37,2013-03-04 23:25:00,
2013-03-04 17:30:00,23.3,18.3,29.94,East,85,8.1,8.1,81,0.00,BKN,,0.00,WeatherDisplay:10.37,2013-03-04 23:30:00,
2013-03-04 17:35:00,23.3,18.3,29.94,East,101,9.2,9.2,81,0.00,BKN,,0.00,WeatherDisplay:10.37,2013-03-04 23:35:00,
2013-03-04 17:40:00,23.3,18.3,29.94,ESE,113,4.6,4.6,81,0.00,BKN,,0.00,WeatherDisplay:10.37,2013-03-04 23:40:00,
2013-03-04 17:45:00,23.3,18.3,29.94,ESE,113,6.9,6.9,81,0.00,OVC,,0.00,WeatherDisplay:10.37,2013-03-04 23:45:00,
2013-03-04 17:50:00,23.3,18.3,29.94,ESE,115,6.9,6.9,81,0.00,OVC,,0.00,WeatherDisplay:10.37,2013-03-04 23:50:00,
2013-03-04 17:55:00,23.3,18.3,29.94,ENE,78,10.4,10.4,81,0.00,OVC,,0.00,WeatherDisplay:10.37,2013-03-04 23:55:00,
2013-03-04 18:00:00,23.3,18.6,29.94,ESE,109,6.9,6.9,82,0.00,-SN,,0.00,WeatherDisplay:10.37,2013-03-05 00:00:00,
2013-03-04 18:05:00,23.3,18.6,29.94,ENE,67,6.9,6.9,82,0.00,-SN,,0.00,WeatherDisplay:10.37,2013-03-05 00:05:00,
2013-03-04 18:10:00,23.2,18.5,29.94,ENE,66,5.8,5.8,82,0.00,-SN,,0.00,WeatherDisplay:10.37,2013-03-05 00:10:00,
2013-03-04 18:15:00,23.2,18.8,29.94,ESE,107,9.2,9.2,83,0.00,-SN,,0.00,WeatherDisplay:10.37,2013-03-05 00:15:00,
2013-03-04 18:20:00,23.2,18.8,29.94,East,84,3.5,3.5,83,0.00,-SN,,0.00,WeatherDisplay:10.37,2013-03-05 00:20:00,
2013-03-04 18:25:00,23.2,18.8,29.94,East,91,4.6,4.6,83,0.00,-SN,,0.00,WeatherDisplay:10.37,2013-03-05 00:25:00,
2013-03-04 18:30:00,23.2,18.8,29.94,ESE,107,4.0,4.0,83,0.00,-SN,,0.00,WeatherDisplay:10.37,2013-03-05 00:30:00,
2013-03-04 18:35:00,23.2,19.1,29.94,ESE,107,3.5,3.5,84,0.00,-SN,,0.00,WeatherDisplay:10.37,2013-03-05 00:35:00,
2013-03-04 18:40:00,23.2,19.1,29.94,East,88,5.8,5.8,84,0.00,-SN,,0.00,WeatherDisplay:10.37,2013-03-05 00:40:00,
2013-03-04 18:45:00,23.2,19.1,29.95,ESE,123,5.8,5.8,84,0.00,-SN,,0.00,WeatherDisplay:10.37,2013-03-05 00:45:00,
2013-03-04 18:50:00,23.2,19.1,29.95,ESE,111,5.8,5.8,84,0.00,-SN,,0.00,WeatherDisplay:10.37,2013-03-05 00:50:00,
2013-03-04 18:55:00,23.2,19.1,29.95,East,94,2.3,2.3,84,0.00,-SN,,0.00,WeatherDisplay:10.37,2013-03-05 00:55:00,
2013-03-04 19:00:00,23.2,19.1,29.96,ENE,73,4.6,4.6,84,0.00,-SN,,0.00,WeatherDisplay:10.37,2013-03-05 01:00:00,
2013-03-04 19:05:00,23.3,19.2,29.96,ENE,74,3.5,3.5,84,0.00,-SN,,0.00,WeatherDisplay:10.37,2013-03-05 01:05:00,
2013-03-04 19:10:00,23.3,19.2,29.96,ENE,74,3.5,3.5,84,0.00,-SN,,0.00,WeatherDisplay:10.37,2013-03-05 01:10:00,
2013-03-04 19:15:00,23.3,19.5,29.96,ESE,109,3.5,0.0,85,0.00,-SN,,0.00,WeatherDisplay:10.37,2013-03-05 01:15:00,
2013-03-04 19:20:00,23.3,19.5,29.96,ENE,72,2.3,2.3,85,0.00,-SN,,0.00,WeatherDisplay:10.37,2013-03-05 01:20:00,
2013-03-04 19:25:00,23.3,19.5,29.96,ENE,71,5.8,5.8,85,0.00,-SN,,0.00,WeatherDisplay:10.37,2013-03-05 01:25:00,
2013-03-04 19:30:00,23.3,19.5,29.96,ENE,71,3.5,3.5,85,0.00,OVC,,0.00,WeatherDisplay:10.37,2013-03-05 01:30:00,
2013-03-04 19:35:00,23.3,19.5,29.96,ENE,71,2.3,2.3,85,0.00,OVC,,0.00,WeatherDisplay:10.37,2013-03-05 01:35:00,
2013-03-04 19:40:00,23.3,19.5,29.96,ESE,115,4.6,4.6,85,0.00,OVC,,0.00,WeatherDisplay:10.37,2013-03-05 01:40:00,
2013-03-04 19:45:00,23.3,19.5,29.97,ENE,61,2.0,2.0,85,0.00,OVC,,0.00,WeatherDisplay:10.37,2013-03-05 01:45:00,
2013-03-04 19:50:00,23.3,19.5,29.97,ESE,112,3.5,3.5,85,0.00,OVC,,0.00,WeatherDisplay:10.37,2013-03-05 01:50:00,
2013-03-04 19:55:00,23.3,19.5,29.97,ESE,112,2.3,2.3,85,0.00,OVC,,0.00,WeatherDisplay:10.37,2013-03-05 01:55:00,
2013-03-04 20:00:00,23.3,19.5,29.97,ESE,112,1.1,1.1,85,0.00,-SN,,0.00,WeatherDisplay:10.37,2013-03-05 02:00:00,
2013-03-04 20:05:00,23.3,19.5,29.97,ESE,112,3.5,3.5,85,0.00,-SN,,0.00,WeatherDisplay:10.37,2013-03-05 02:05:00,
2013-03-04 20:10:00,23.3,19.7,29.97,ESE,112,2.3,2.3,86,0.00,-SN,,0.00,WeatherDisplay:10.37,2013-03-05 02:10:00,
2013-03-04 20:15:00,23.3,19.7,29.99,ESE,112,3.5,3.5,86,0.00,-SN,,0.00,WeatherDisplay:10.37,2013-03-05 02:15:00,
2013-03-04 20:20:00,23.3,19.7,29.99,East,98,3.5,3.5,86,0.00,-SN,,0.00,WeatherDisplay:10.37,2013-03-05 02:20:00,
2013-03-04 20:25:00,23.3,19.7,29.99,East,98,3.5,3.5,86,0.00,-SN,,0.00,WeatherDisplay:10.37,2013-03-05 02:25:00,
2013-03-04 20:30:00,23.3,19.7,29.99,East,98,3.0,3.0,86,0.00,-SN,,0.00,WeatherDisplay:10.37,2013-03-05 02:30:00,
2013-03-04 20:35:00,23.3,19.7,29.99,East,98,3.5,3.5,86,0.00,-SN,,0.00,WeatherDisplay:10.37,2013-03-05 02:35:00,
2013-03-04 20:40:00,23.3,20.0,29.99,East,98,1.1,0.0,87,0.00,-SN,,0.00,WeatherDisplay:10.37,2013-03-05 02:40:00,
2013-03-04 20:45:00,23.3,20.0,29.99,East,98,2.3,2.3,87,0.00, +SN,,0.00,WeatherDisplay:10.37,2013-03-05 02:45:00,
2013-03-04 20:50:00,23.3,20.0,29.99,East,98,2.3,2.3,87,0.00, +SN,,0.00,WeatherDisplay:10.37,2013-03-05 02:50:00,
2013-03-04 20:55:00,23.2,19.9,29.99,East,98,2.3,0.0,87,0.00, +SN,,0.00,WeatherDisplay:10.37,2013-03-05 02:55:00,
2013-03-04 21:00:00,23.2,19.9,29.99,East,98,3.5,3.5,87,0.00,-SN,,0.00,WeatherDisplay:10.37,2013-03-05 03:00:00,
2013-03-04 21:05:00,23.2,20.2,29.99,East,98,3.5,3.5,88,0.00,-SN,,0.00,WeatherDisplay:10.37,2013-03-05 03:05:00,
2013-03-04 21:10:00,23.2,20.2,29.99,East,98,3.5,3.5,88,0.00,-SN,,0.00,WeatherDisplay:10.37,2013-03-05 03:10:00,
2013-03-04 21:15:00,23.2,20.2,29.99,East,98,3.5,3.5,88,0.00,-SN,,0.00,WeatherDisplay:10.37,2013-03-05 03:15:00,
2013-03-04 21:20:00,23.2,20.2,29.99,East,98,2.0,2.2,88,0.00,-SN,,0.00,WeatherDisplay:10.37,2013-03-05 03:20:00,
2013-03-04 21:25:00,23.2,20.2,29.99,East,97,2.3,2.3,88,0.00,-SN,,0.00,WeatherDisplay:10.37,2013-03-05 03:25:00,
2013-03-04 21:30:00,23.2,20.2,30.00,East,97,3.5,3.5,88,0.00,-SN,,0.00,WeatherDisplay:10.37,2013-03-05 03:30:00,
2013-03-04 21:35:00,23.2,20.2,30.00,East,97,1.1,1.1,88,0.00,-SN,,0.00,WeatherDisplay:10.37,2013-03-05 03:35:00,
2013-03-04 21:40:00,23.2,20.2,30.00,ESE,111,3.5,3.5,88,0.00,-SN,,0.00,WeatherDisplay:10.37,2013-03-05 03:40:00,
2013-03-04 21:45:00,23.2,20.2,30.00,ESE,111,3.0,3.0,88,0.00,OVC,,0.00,WeatherDisplay:10.37,2013-03-05 03:45:00,
2013-03-04 21:50:00,23.2,20.2,30.00,ESE,111,1.1,1.1,88,0.00,OVC,,0.00,WeatherDisplay:10.37,2013-03-05 03:50:00,
2013-03-04 21:55:00,23.2,20.4,30.00,ESE,111,2.0,2.0,89,0.00,OVC,,0.00,WeatherDisplay:10.37,2013-03-05 03:55:00,
2013-03-04 22:00:00,23.2,20.4,30.00,East,90,3.5,3.5,89,0.00,OVC,,0.00,WeatherDisplay:10.37,2013-03-05 04:00:00,
2013-03-04 22:05:00,23.2,20.4,30.00,ESE,104,3.5,3.5,89,0.00,OVC,,0.00,WeatherDisplay:10.37,2013-03-05 04:05:00,
2013-03-04 22:10:00,23.2,20.4,30.00,SE,124,2.3,2.3,89,0.00,OVC,,0.00,WeatherDisplay:10.37,2013-03-05 04:10:00,
2013-03-04 22:15:00,23.2,20.4,29.99,ESE,112,4.0,4.0,89,0.00,OVC,,0.00,WeatherDisplay:10.37,2013-03-05 04:15:00,
2013-03-04 22:20:00,23.2,20.4,29.99,SE,126,3.5,3.5,89,0.00,OVC,,0.00,WeatherDisplay:10.37,2013-03-05 04:20:00,
2013-03-04 22:25:00,23.0,20.2,29.99,ESE,104,3.5,3.5,89,0.00,OVC,,0.00,WeatherDisplay:10.37,2013-03-05 04:25:00,
2013-03-04 22:30:00,23.2,20.4,30.00,ESE,104,3.5,3.5,89,0.00,-SN,,0.00,WeatherDisplay:10.37,2013-03-05 04:30:00,
2013-03-04 22:35:00,23.2,20.4,30.00,ESE,104,3.5,3.5,89,0.00,-SN,,0.00,WeatherDisplay:10.37,2013-03-05 04:35:00,
2013-03-04 22:40:00,23.2,20.4,30.00,ESE,109,3.5,3.5,89,0.00,-SN,,0.00,WeatherDisplay:10.37,2013-03-05 04:40:00,
2013-03-04 22:45:00,23.2,20.4,29.99,ESE,113,3.5,3.5,89,0.00,-SN,,0.00,WeatherDisplay:10.37,2013-03-05 04:45:00,
2013-03-04 22:50:00,23.2,20.4,29.99,SE,130,4.6,4.6,89,0.00,-SN,,0.00,WeatherDisplay:10.37,2013-03-05 04:50:00,
2013-03-04 22:55:00,23.2,20.4,29.99,East,84,3.0,3.0,89,0.00,-SN,,0.00,WeatherDisplay:10.37,2013-03-05 04:55:00,
2013-03-04 23:00:00,23.0,20.2,29.99,East,80,3.5,3.5,89,0.00,-SN,,0.00,WeatherDisplay:10.37,2013-03-05 05:00:00,
2013-03-04 23:05:00,23.2,20.7,29.99,ESE,108,2.3,2.3,90,0.00,-SN,,0.00,WeatherDisplay:10.37,2013-03-05 05:05:00,
2013-03-04 23:10:00,23.2,20.7,29.99,East,89,3.5,3.5,90,0.00,-SN,,0.00,WeatherDisplay:10.37,2013-03-05 05:10:00,
2013-03-04 23:15:00,23.2,20.7,29.98,East,85,3.5,3.5,90,0.00,-SN,,0.00,WeatherDisplay:10.37,2013-03-05 05:15:00,
2013-03-04 23:20:00,23.2,20.7,29.98,East,100,2.3,2.3,90,0.00,-SN,,0.00,WeatherDisplay:10.37,2013-03-05 05:20:00,
2013-03-04 23:25:00,23.2,20.7,29.98,East,86,3.5,3.5,90,0.00,-SN,,0.00,WeatherDisplay:10.37,2013-03-05 05:25:00,
2013-03-04 23:30:00,23.3,20.8,29.98,East,99,3.5,3.5,90,0.00,OVC,,0.00,WeatherDisplay:10.37,2013-03-05 05:30:00,
2013-03-04 23:35:00,23.3,20.8,29.98,East,101,3.5,3.5,90,0.00,OVC,,0.00,WeatherDisplay:10.37,2013-03-05 05:35:00,
2013-03-04 23:40:00,23.3,20.8,29.98,ESE,103,3.5,3.5,90,0.00,OVC,,0.00,WeatherDisplay:10.37,2013-03-05 05:40:00,
2013-03-04 23:45:00,23.3,20.8,29.97,ESE,103,3.5,3.5,90,0.00, +SN,,0.00,WeatherDisplay:10.37,2013-03-05 05:45:00,
2013-03-04 23:50:00,23.5,21.0,29.97,ESE,105,3.5,3.5,90,0.00, +SN,,0.00,WeatherDisplay:10.37,2013-03-05 05:50:00,
2013-03-04 23:55:00,23.5,21.0,29.97,ESE,107,4.6,4.6,90,0.00, +SN,,0.00,WeatherDisplay:10.37,2013-03-05 05:55:00,